FW1737 Weather Reports


Display with metric or nautical units.
time (UTC)temp
F
wind
direction
speed
MPH
gust
MPH
rain 1hr
in
rain 24hr
in
rain mn
in
humidity
%
barometer
mb
20260905080050 56 57 21.0 41.0 0.06 5.09 0.06 99 999.4
20260905074539 57 57 17.0 35.0 0.00 5.04 0.00 98 999.7
20260905034559 62 313 1.0 3.0 0.79 5.69 0.65 100 1001.6
20260905033102 62 236 0.0 8.0 0.92 5.62 0.57 100 1001.7
20260905031556 62 53 3.0 11.0 1.12 5.37 0.33 100 1001.7
20260905030106 62 53 6.0 14.0 1.31 5.05 0.01 100 1001.7
20260905024555 63 40 9.0 23.0 1.29 4.90 4.90 100 1001.6
20260905023052 63 59 7.0 16.0 1.40 4.69 4.69 100 1001.4
20260905021549 64 32 6.0 13.0 1.15 4.25 4.25 100 1001.8
20260905020100 63 96 12.0 16.0 0.89 3.73 3.73 100 1002.2
20260905014548 62 63 7.0 15.0 0.94 3.61 3.61 100 1002.1
20260905013045 63 86 10.0 22.0 0.89 3.28 3.28 100 1002.5
20260905011542 63 115 7.0 17.0 1.02 3.09 3.09 100 1002.4
20260905010041 63 31 7.0 16.0 0.87 2.83 2.83 100 1002.5
20260905004543 63 78 5.0 14.0 0.80 2.67 2.67 100 1003.2
20260905003034 63 68 9.0 14.0 0.65 2.38 2.38 100 1004.0
20260905001532 64 88 11.0 18.0 0.44 2.06 2.06 100 1004.1
20260905000031 63 76 10.0 18.0 0.40 1.96 1.96 100 1004.3
20260904234530 63 65 9.0 16.0 0.37 1.86 1.86 100 1004.3
20260904233031 62 44 6.0 15.0 0.26 1.73 1.73 100 1004.3
20260904231528 63 55 7.0 13.0 0.20 1.63 1.63 100 1004.5
20260904230026 63 86 8.0 13.0 0.15 1.56 1.56 100 1004.9
20260904224525 63 76 8.0 17.0 0.12 1.49 1.49 100 1004.9
20260904223025 63 85 8.0 12.0 0.17 1.47 1.47 100 1005.2
20260904221520 63 98 7.0 11.0 0.27 1.43 1.43 100 1005.6
20260904220024 63 92 11.0 16.0 0.40 1.40 1.40 100 1005.6
20260904214518 63 65 8.0 19.0 0.43 1.36 1.36 100 1005.6
20260904213026 63 98 8.0 19.0 0.45 1.29 1.29 100 1005.7
20260904211512 63 80 10.0 15.0 0.36 1.14 1.14 100 1006.1
20260904210023 63 82 11.0 18.0 0.28 0.99 0.99 100 1006.4
20260904204508 63 71 8.0 17.0 0.31 0.93 0.93 100 1006.7
20260904203005 63 72 7.0 21.0 0.26 0.84 0.84 100 1006.9
20260904201502 63 56 8.0 14.0 0.26 0.79 0.79 100 1007.3
20260904200114 63 80 7.0 15.0 0.19 0.71 0.71 99 1007.8
20260904194559 63 76 7.0 13.0 0.10 0.62 0.62 99 1008.1
20260904193055 63 92 9.0 17.0 0.06 0.57 0.57 99 1008.4
20260904191551 63 96 8.0 17.0 0.01 0.53 0.53 98 1008.4
20260904190049 63 82 5.0 15.0 0.00 0.52 0.52 99 1008.6
20260904184548 63 122 10.0 15.0 0.00 0.52 0.52 98 1008.9
20260904183046 64 105 6.0 14.0 0.00 0.52 0.52 98 1009.1
20260904181550 64 154 7.0 18.0 0.00 0.52 0.52 98 1009.4
20260904180043 64 117 11.0 20.0 0.00 0.52 0.52 98 1009.4
20260904174548 64 134 4.0 13.0 0.00 0.52 0.52 98 1009.5
20260904173043 64 82 8.0 17.0 0.02 0.52 0.52 98 1009.1
20260904171552 64 80 10.0 16.0 0.03 0.52 0.52 99 1009.5
20260904170036 64 81 11.0 16.0 0.03 0.52 0.52 99 1009.9
20260904164533 63 91 6.0 16.0 0.05 0.52 0.52 99 1010.4
20260904163032 64 94 7.0 14.0 0.06 0.50 0.50 99 1010.4
20260904161535 64 109 4.0 14.0 0.08 0.49 0.49 99 1010.7
20260904160029 64 76 7.0 12.0 0.10 0.49 0.49 100 1010.6
20260904154527 63 98 8.0 16.0 0.11 0.47 0.47 99 1010.9
20260904153025 62 112 9.0 15.0 0.11 0.44 0.44 99 1011.1
20260904151522 62 101 7.0 11.0 0.12 0.41 0.41 99 1011.4
20260904150026 62 105 6.0 12.0 0.15 0.39 0.39 99 1011.6
20260904144518 62 94 5.0 13.0 0.15 0.36 0.36 99 1011.7
20260904143017 62 93 9.0 16.0 0.13 0.33 0.33 99 1012.0
20260904141514 62 97 5.0 10.0 0.09 0.28 0.28 99 1012.4
20260904140012 62 87 6.0 11.0 0.05 0.24 0.24 98 1012.7
20260904134510 62 103 4.0 11.0 0.05 0.21 0.21 98 1012.9